Location: Mount Kobau Star Party
(49.1167°N, 119.7333°W)
Time: 11:22:28
(UTC-07:00)

ARIANE 6 FM1 Upper Stage - Pass Details

Date: 15 April 2026
Orbit: 526 x 601 km, 62.0° (Epoch: 18 May)

Event Time Altitude Azimuth Distance (km) Brightness Sun altitude
Rises 01:53:37 0° 317° (NW) 2,674 6.5 -29.8°
Reaches altitude 10° 01:55:57 10° 326° (NW) 1,777 5.6 -29.7°
Enters shadow 01:57:49 23° 344° (NNW) 1,141 4.7 -29.7°
